星链-31139 (STARLINK-31139 )

导读

STARLINK-31139是美国太空探索技术公司SpaceX星链星座卫星,于2023年12月29日发射升空。它属于星链互联网卫星星座的组成部分,承担低轨宽带互联网接入服务任务,依托星链大规模组网,可向全球提供高速卫星互联网,补充地面网络覆盖盲区,强化美国低轨卫星通信服务能力。

基本信息
目录编号:
58688
目录名称:
STARLINK-31139
国际标识:
2023-211X
轨道中心:
EARTH
卫星名称:
星链-31139
卫星全名:
星链-31139 (STARLINK-31139 )
卫星状态:
已陨落 最后检测时间 2026-02-17
发射日期:
2023-12-29 UTC
国别 :
美国 (US)
星等 :
--
该卫星已列入 空间交会检测服务 Space Conjunction Data Service (SCDS) ,当前飞行风险评估等级: 无高风险
轨道信息
数据来源 国际轨道数据
星历时间: 2026-02-17T02:20:09+0800
轨道信息已过期207天
半长轴: 6586.108km
偏心率: 0.0024372
轨道倾角: 42.975°
近地点辐角 13.942°
升交点赤经 169.110°
平近点角 346.214°
近地点: 191.919km
远地点: 224.023km
周期: 88.655分钟
每日圈数: 16.242749
详细信息
固有亮度:
5
最大亮度:
0.3
卫星平台:
Starlink v2.0 mini
覆盖范围:
全球
运营商:
太空探索技术公司
运营商所在国:
美国
制造商(研发单位):
太空探索技术公司
制造商所在国:
美国
使用方式:
暂无
卫星简介
星链(Starlink)计划是由太空探索技术公司(SpaceX)提出的一个巨型低轨卫星互联网星座项目,计划在2019年至2024年间在太空搭建由约1.2万颗卫星组成的“星链”网络,其中1584颗将部署在地球上空550千米处的近地轨道,并从2020年开始工作。该卫星仍在工作。
与全量物体交会距离演化趋势
与全量物体交会风险概率演化趋势